Punta Gorda, FL

2:55 PM EDT on March 28, 2017 (GMT -0400)
Charlotte County

Weather History for KPGD - April, 2014

Change the Weather History Date:

Tuesday, April 1, 2014

  Actual Average Record
Temperature  
Mean Temperature 70 °F -  
Max Temperature 86 °F 80 °F 89 °F (2016)
Min Temperature 53 °F 57 °F 39 °F (2003)
Cooling Degree Days 4    
Growing Degree Days 20 (Base 50)    
Moisture  
Dew Point 55 °F    
Average Humidity 72    
Maximum Humidity 97    
Minimum Humidity 33    
Precipitation  
Precipitation 0.00 in - - ()
Sea Level Pressure  
Sea Level Pressure 30.16 in    
Wind  
Wind Speed 4 mph (ENE)    
Max Wind Speed 10 mph    
Max Gust Speed -    
Visibility 8 miles    
Events      
Averages and records for this station are not official NWS values.
T = Trace of Precipitation, MM = Missing Value Source: NWS Daily Summary

Daily Weather History Graph

Daily Weather History Graph

Search for Another Location

Airport or City:

Trip Planner

Search our weather history database for the weather conditions in past years. The results will help you decide how hot, cold, wet, or windy it might be!

Date:

Astronomy

Apr. 01, 2014 Rise Set
Actual Time 7:18 AM EDT 7:45 PM EDT
Civil Twilight 6:55 AM EDT 8:08 PM EDT
Nautical Twilight 6:28 AM EDT 8:35 PM EDT
Astronomical Twilight 6:00 AM EDT 9:03 PM EDT
Moon 8:31 AM EDT (4/1) 9:53 PM EDT (4/1)
Length of Visible Light 13h 13m
Length of Day
12h 26m
Waxing Crescent, 4% of the Moon is Illuminated
Apr 1
Waxing Crescent
Apr 7
First Quarter
Apr 15
Full
Apr 22
Last Quarter
Apr 29
New

Hourly Weather History & Observations

Time (EDT) Temp. Heat Index Dew Point Humidity Pressure Visibility Wind Dir Wind Speed Gust Speed Precip Events Conditions
12:53 AM 57.0 °F - 54.0 °F 89% 30.17 in 10.0 mi NE 8.1 mph - N/A   Clear
1:53 AM 55.9 °F - 54.0 °F 93% 30.16 in 9.0 mi Calm Calm - N/A   Clear
2:53 AM 55.9 °F - 54.0 °F 93% 30.15 in 6.0 mi NNE 3.5 mph - N/A   Clear
3:53 AM 54.0 °F - 52.0 °F 93% 30.14 in 6.0 mi NNE 4.6 mph - N/A   Clear
4:53 AM 54.0 °F - 53.1 °F 97% 30.13 in 7.0 mi ENE 3.5 mph - N/A   Clear
5:53 AM 54.0 °F - 52.0 °F 93% 30.14 in 2.0 mi Calm Calm - N/A   Clear
6:00 AM 54.0 °F - 52.0 °F 93% 30.14 in 1.5 mi Calm Calm - N/A   Clear
6:10 AM 54.0 °F - 52.0 °F 93% 30.14 in 2.0 mi NE 3.5 mph - N/A   Clear
6:24 AM 54.0 °F - 53.1 °F 97% 30.14 in 3.0 mi NE 4.6 mph - N/A   Clear
6:33 AM 54.0 °F - 53.1 °F 97% 30.14 in 2.5 mi NE 5.8 mph - N/A   Clear
6:53 AM 53.1 °F - 52.0 °F 96% 30.15 in 7.0 mi ENE 3.5 mph - N/A   Clear
7:53 AM 55.0 °F - 54.0 °F 96% 30.17 in 7.0 mi East 3.5 mph - N/A   Clear
8:53 AM 63.0 °F - 59.0 °F 87% 30.18 in 10.0 mi East 4.6 mph - N/A   Clear
9:53 AM 71.1 °F - 60.1 °F 68% 30.19 in 10.0 mi East 5.8 mph - N/A   Clear
10:53 AM 75.0 °F - 55.9 °F 51% 30.21 in 10.0 mi Variable 6.9 mph - N/A   Clear
11:53 AM 75.9 °F - 55.0 °F 48% 30.20 in 10.0 mi East 10.4 mph - N/A   Clear
12:53 PM 78.1 °F - 55.0 °F 45% 30.19 in 10.0 mi Variable 3.5 mph - N/A   Clear
1:53 PM 81.0 °F 80.7 °F 55.0 °F 41% 30.17 in 10.0 mi SE 6.9 mph - N/A   Clear
2:53 PM 82.0 °F 81.2 °F 53.1 °F 37% 30.15 in 10.0 mi Calm Calm - N/A   Clear
3:53 PM 84.0 °F - 52.0 °F 33% 30.13 in 10.0 mi ENE 8.1 mph - N/A   Clear
4:53 PM 86.0 °F 84.5 °F 55.0 °F 35% 30.12 in 10.0 mi North - - N/A   Clear
5:53 PM 84.0 °F 82.5 °F 53.1 °F 34% 30.11 in 10.0 mi ENE 5.8 mph - N/A   Clear
6:53 PM 82.0 °F 81.3 °F 54.0 °F 38% 30.12 in 10.0 mi ENE 6.9 mph - N/A   Clear
7:53 PM 75.9 °F - 57.0 °F 52% 30.13 in 10.0 mi Calm Calm - N/A   Clear
8:53 PM 72.0 °F - 61.0 °F 68% 30.15 in 10.0 mi NW 5.8 mph - N/A   Clear
9:53 PM 69.1 °F - 60.1 °F 73% 30.17 in 10.0 mi NNW 4.6 mph - N/A   Clear
10:53 PM 66.0 °F - 60.1 °F 81% 30.19 in 10.0 mi NE 3.5 mph - N/A   Clear
11:53 PM 63.0 °F - 59.0 °F 87% 30.19 in 10.0 mi ENE 4.6 mph - N/A   Clear